[[{"header":{"parameterUnit":"m.s-1","parameterCategory":1,"la1":30.2991,"la2":30.254,"lo1":-89.0895,"lo2":-89.0444,"dy":0.0017,"dx":0.0017,"nx":28,"ny":28,"refTime":"2025-01-26T03:00:00:Z","depth":0,"parameterNumber":2,"parameterNumberName":"U-component_of_WINDS"},"data":[0,0,0,0,0,0,0,0,0,0,0,0,0,0,0,0,0,0,0,0,0,0,0,0,0,0,0,0,0,0,0,0,0,0,0,0,0,0,0,0,0,0,0,0,0,0,0,0,0,0,0,0,0,0,0,0,0,0,-3.4723,-3.4723,0,-3.4687,-3.4687,-3.4687,-3.4515,-3.4511,-3.4507,-3.4503,-3.4472,-3.4475,-3.4478,0,0,0,0,0,0,0,0,0,0,0,0,0,-3.4648,-3.465,-3.4723,-3.4723,-3.4722,-3.4687,-3.4687,-3.4687,-3.4516,-3.4511,-3.4506,-3.4501,-3.4472,-3.4475,-3.4479,0,0,0,0,0,0,0,0,0,0,0,0,0,-3.4654,-3.4651,-3.4723,-3.4633,-3.4624,-3.4688,-3.4687,-3.4686,-3.4517,-3.451,-3.4504,-3.4499,-3.447,-3.4475,-3.4479,-3.4629,0,0,-3.4493,-3.4495,0,0,0,0,0,0,0,0,-3.4654,-3.4657,-3.4646,-3.4639,-3.4629,-3.4599,-3.4649,-3.4667,-3.4518,-3.4558,-3.4503,-3.4496,-3.452,-3.452,-3.4527,-3.4628,-3.4626,-3.4493,-3.4496,-3.4498,-3.4499,0,0,0,0,0,0,0,-3.4653,-3.4657,-3.4709,-3.4646,-3.4636,-3.4595,-3.4589,-3.4652,-3.4574,-3.4554,-3.4541,-3.4539,-3.4514,-3.4523,-3.4525,-3.4626,-3.4493,-3.4497,-3.45,-3.4502,-3.4846,-3.4852,0,0,0,0,0,0,-3.4665,-3.4658,-3.471,-3.4708,-3.4627,-3.4602,-3.4595,-3.4615,-3.4572,-3.456,-3.4544,-3.4531,-3.4518,-3.452,-3.4523,-3.4694,-3.4498,-3.4502,-3.4505,-3.484,-3.4848,-3.4854,0,0,0,0,0,0,-3.4664,-3.4671,-3.4712,-3.468,-3.4681,-3.4609,-3.4634,-3.4618,-3.4626,-3.4565,-3.4551,-3.4567,-3.4514,-3.4517,-3.4603,-3.4691,-3.4504,-3.4508,-3.4832,-3.4842,-3.4851,-3.5039,0,0,0,0,0,0,-3.4663,-3.4672,-3.4727,-3.4682,-3.4684,-3.4791,-3.4639,-3.4621,-3.4634,-3.4616,-3.4583,-3.4572,-3.4509,-3.4597,-3.4608,-3.4694,-3.4512,-3.4824,-3.4837,-3.4848,-3.5025,-3.5054,-3.5079,0,0,0,0,0,-3.4661,-3.4783,-3.4731,-3.4738,-3.4751,-3.4797,-3.4798,-3.4722,-3.4641,-3.4697,-3.4657,-3.4573,-3.468,-3.4608,-3.4618,-3.4707,-3.4818,-3.4833,-3.4847,-3.5013,-3.5048,-3.5079,0,0,0,0,0,0,-3.4844,-3.4776,-3.4717,-3.4828,-3.4819,-3.4768,-3.4835,-3.4762,-3.4777,-3.4761,-3.4667,-3.4661,-3.4761,-3.4742,-3.4663,-3.4849,-3.4734,-3.4752,-3.4857,-3.489,-3.4917,-3.4919,-3.4515,0,0,0,0,0,-3.4896,-3.4937,-3.4877,-3.4981,-3.4979,-3.4909,-3.4926,-3.4867,-3.4855,-3.4851,-3.4818,-3.4811,-3.4842,-3.4866,-3.4892,-3.5022,-3.5012,-3.5088,-3.5115,-3.5137,-3.5153,-3.522,-3.5252,-3.4902,-3.4902,-3.4902,0,0,-3.5007,-3.4975,-3.5007,-3.5017,-3.5003,-3.5049,-3.4907,-3.4961,-3.4994,-3.486,-3.4938,-3.4914,-3.49,-3.5009,-3.5055,-3.4996,-3.5248,-3.5156,-3.5175,-3.5178,-3.5238,-3.5271,-3.5301,-3.4912,-3.491,-3.4909,0,0,-3.5231,-3.5211,-3.5295,-3.5283,-3.5263,-3.5215,-3.5235,-3.5194,-3.5172,-3.5249,-3.5148,-3.5188,-3.5245,-3.5238,-3.5242,-3.5463,-3.5386,-3.5475,-3.5617,-3.5682,-3.571,-3.5734,-3.5812,-3.5841,-3.5491,-3.5491,-3.5492,0,-3.5371,-3.5434,-3.5348,-3.5408,-3.5415,-3.5293,-3.5378,-3.5371,-3.5362,-3.5371,-3.5305,-3.5372,-3.5355,-3.5459,-3.5513,-3.5521,-3.5541,-3.5478,-3.5712,-3.5736,-3.5757,-3.583,-3.586,-3.5502,-3.5501,-3.55,-3.5499,0,-3.5607,-3.5652,-3.5723,-3.5713,-3.5729,-3.5802,-3.5727,-3.5754,-3.5694,-3.5654,-3.5734,-3.5708,-3.5725,-3.5746,-3.569,-3.5843,-3.5807,-3.5729,-3.5612,-3.5802,-3.5869,-3.5897,-3.5518,-3.5514,-3.551,-3.5508,0,0,-3.5946,-3.5886,-3.5913,-3.5907,-3.5875,-3.5909,-3.5977,-3.5992,-3.6016,-3.6014,-3.6068,-3.6118,-3.6045,-3.605,-3.5992,-3.605,-3.6225,-3.5963,-3.5962,-3.6012,-3.6391,-3.6449,-3.6483,-3.6174,-3.6179,-3.6183,-3.6392,0,-3.6158,-3.6267,-3.6191,-3.6313,-3.6354,-3.6238,-3.6297,-3.6285,-3.6249,-3.6279,-3.624,-3.6276,-3.6177,-3.6179,-3.6231,-3.6193,-3.63,-3.6177,-3.6224,-3.6226,-3.6229,-3.6518,-3.658,-3.6779,-3.6418,-3.6422,-3.6425,0,-3.6421,-3.6427,-3.6553,-3.6511,-3.6525,-3.6579,-3.6586,-3.6616,-3.6601,-3.657,-3.6576,-3.6502,-3.6566,-3.6452,-3.654,-3.6458,-3.6473,-3.6457,-3.6463,-3.6463,-3.6337,-3.6526,-3.6841,-3.687,-3.6466,-3.6463,-3.646,0,-3.6654,-3.6694,-3.6773,-3.6772,-3.6726,-3.6766,-3.6749,-3.6727,-3.674,-3.6748,-3.6755,-3.6771,-3.678,-3.6795,-3.6728,-3.6651,-3.6824,-3.6705,-3.6801,-3.6803,-3.6842,-3.684,-3.7163,-3.6855,-3.6854,-3.6853,-3.6853,0,-3.6899,-3.698,-3.6877,-3.6926,-3.7014,-3.6926,-3.7016,-3.6987,-3.6968,-3.7011,-3.6913,-3.6956,-3.6865,-3.6899,-3.6848,-3.6927,-3.6933,-3.6911,-3.6896,-3.6918,-3.6921,-3.6926,-3.691,-3.6861,-3.686,-3.6858,-3.6857,0,-3.7173,-3.7107,-3.7186,-3.7135,-3.7124,-3.7191,-3.7148,-3.7192,-3.7149,-3.7204,-3.7212,-3.7146,-3.718,-3.7115,-3.7142,-3.7107,-3.7218,-3.7183,-3.7223,-3.7212,-3.7312,-3.7303,-3.7648,-3.7688,-3.7356,-3.7359,-3.7362,0,-3.7333,-3.7392,-3.7347,-3.7366,-3.7354,-3.7388,-3.74,-3.7317,-3.7335,-3.732,-3.7367,-3.7392,-3.7408,-3.7469,-3.7424,-3.7444,-3.7407,-3.7526,-3.7409,-3.743,-3.7407,-3.7404,-3.7409,-3.755,-3.7554,-3.7558,-3.756,0,-3.7623,-3.7587,-3.7607,-3.7617,-3.7633,-3.7638,-3.7635,-3.7657,-3.7569,-3.7594,-3.7626,-3.7638,-3.7664,-3.7691,-3.77,-3.7684,-3.7609,-3.7598,-3.7621,-3.7644,-3.7664,-3.7653,-3.7287,-3.759,-3.7587,-3.7585,-3.7583,-3.7582,-3.7844,-3.789,-3.7865,-3.7891,-3.7879,-3.7878,-3.7916,-3.7877,-3.7902,-3.7914,-3.7865,-3.7908,-3.7891,-3.7894,-3.7887,-3.7921,-3.7867,-3.7901,-3.791,-3.7919,-3.7934,-3.766,-3.7922,-3.7921,-3.792,-3.792,-3.7919,0,-3.8128,-3.8105,-3.813,-3.8127,-3.8148,-3.8072,-3.8065,-3.8088,-3.8126,-3.8115,-3.8132,-3.8169,-3.8194,-3.8151,-3.817,-3.8205,-3.8171,-3.8213,-3.8209,-3.8206,-3.7982,-3.7959,-3.824,-3.824,-3.824,-3.824,-3.824,-3.824,-3.8278,-3.8352,-3.8313,-3.8381,-3.8358,-3.8397,-3.84,-3.8399,-3.8389,-3.8434,-3.8453,-3.8424,-3.84,-3.8416,-3.8436,-3.8423,-3.8434,-3.8488,-3.8463,-3.8254,-3.8222,-3.8192,-3.817,-3.8491,-3.8492,-3.8684,-3.8686,-3.8687]},{"header":{"parameterUnit":"m.s-1","parameterCategory":1,"la1":30.2991,"la2":30.254,"lo1":-89.0895,"lo2":-89.0444,"dy":0.0017,"dx":0.0017,"nx":28,"ny":28,"refTime":"2025-01-26T03:00:00:Z","depth":0,"parameterNumber":3,"parameterNumberName":"V-component_of_WINDS"},"data":[0,0,0,0,0,0,0,0,0,0,0,0,0,0,0,0,0,0,0,0,0,0,0,0,0,0,0,0,0,0,0,0,0,0,0,0,0,0,0,0,0,0,0,0,0,0,0,0,0,0,0,0,0,0,0,0,0,0,0.1635,0.1633,0,0.1516,0.1514,0.1513,0.1423,0.1422,0.1421,0.142,0.1296,0.1294,0.1291,0,0,0,0,0,0,0,0,0,0,0,0,0,0.1783,0.1781,0.1635,0.1633,0.1632,0.1516,0.1514,0.1512,0.1423,0.1422,0.1421,0.142,0.1297,0.1294,0.1291,0,0,0,0,0,0,0,0,0,0,0,0,0,0.1697,0.178,0.1635,0.1573,0.1566,0.1516,0.1514,0.1512,0.1423,0.1422,0.142,0.1419,0.1298,0.1294,0.129,0.1292,0,0,0.1279,0.1277,0,0,0,0,0,0,0,0,0.1702,0.1691,0.1584,0.1577,0.157,0.1483,0.1521,0.1438,0.1423,0.1477,0.142,0.1419,0.1359,0.135,0.133,0.1286,0.128,0.1278,0.1276,0.1275,0.1273,0,0,0,0,0,0,0,0.1708,0.1696,0.1587,0.1582,0.1574,0.1551,0.1537,0.1505,0.1426,0.1472,0.1466,0.1453,0.1355,0.1334,0.1327,0.1279,0.1279,0.1275,0.1273,0.1271,0.1229,0.123,0,0,0,0,0,0,0.1724,0.1702,0.1591,0.1584,0.1634,0.1549,0.1534,0.1512,0.1427,0.1412,0.1454,0.1449,0.1341,0.1331,0.1322,0.1318,0.1275,0.1271,0.1269,0.1228,0.123,0.1231,0,0,0,0,0,0,0.1727,0.1715,0.1596,0.1641,0.1624,0.1548,0.1524,0.151,0.1489,0.1413,0.1398,0.1448,0.134,0.1327,0.13,0.1313,0.1269,0.1266,0.1227,0.1229,0.123,0.131,0,0,0,0,0,0,0.1732,0.1717,0.1717,0.1642,0.1622,0.1577,0.1525,0.1509,0.1483,0.1476,0.1403,0.1389,0.1338,0.1306,0.1296,0.1307,0.1263,0.1225,0.1228,0.123,0.1306,0.1315,0.1322,0,0,0,0,0,0.1738,0.1743,0.1717,0.1704,0.1621,0.1578,0.1566,0.1508,0.1485,0.1484,0.1435,0.1392,0.1313,0.1304,0.1292,0.1302,0.1224,0.1227,0.123,0.1303,0.1313,0.1322,0,0,0,0,0,0,0.1821,0.1732,0.1702,0.1684,0.1639,0.1563,0.156,0.1521,0.1481,0.1475,0.1404,0.1388,0.1368,0.1332,0.1324,0.1298,0.1263,0.1264,0.1323,0.1332,0.134,0.1349,0.126,0,0,0,0,0,0.1837,0.1811,0.1734,0.1726,0.1705,0.1637,0.1616,0.1575,0.1525,0.1505,0.1454,0.1407,0.1372,0.135,0.1313,0.1301,0.1283,0.1301,0.1309,0.1316,0.1317,0.1308,0.1315,0.124,0.1239,0.1239,0,0,0.1871,0.1819,0.1806,0.1741,0.1702,0.1675,0.1621,0.1595,0.1575,0.1501,0.1472,0.1433,0.1376,0.1357,0.1345,0.1326,0.1334,0.1319,0.1325,0.1322,0.1312,0.1319,0.1325,0.1241,0.1241,0.1241,0,0,0.1918,0.1876,0.1865,0.1826,0.1768,0.1722,0.172,0.1649,0.1621,0.1591,0.1535,0.151,0.145,0.1412,0.1385,0.1419,0.1378,0.1409,0.1449,0.1442,0.1448,0.1452,0.1465,0.147,0.141,0.141,0.141,0,0.1966,0.1925,0.1863,0.1841,0.1814,0.1747,0.1735,0.1701,0.1633,0.1616,0.1595,0.1519,0.1476,0.1447,0.1455,0.1435,0.143,0.1416,0.1452,0.1456,0.146,0.1471,0.1476,0.1414,0.1414,0.1413,0.1413,0,0.1988,0.196,0.1958,0.1895,0.1868,0.1851,0.1786,0.1766,0.1727,0.1684,0.1655,0.1601,0.1552,0.1542,0.1504,0.1508,0.1498,0.1465,0.1428,0.1472,0.1481,0.1485,0.142,0.1419,0.1418,0.1416,0,0,0.2084,0.1988,0.1988,0.1959,0.189,0.1867,0.1847,0.18,0.1784,0.174,0.1721,0.1673,0.1642,0.1612,0.1569,0.1562,0.1593,0.153,0.1528,0.1544,0.1594,0.1619,0.1625,0.1565,0.1566,0.1566,0.1599,0,0.212,0.2081,0.2026,0.2005,0.1979,0.1915,0.1898,0.1853,0.1813,0.1784,0.1738,0.1706,0.1668,0.1649,0.164,0.1591,0.1602,0.1588,0.1547,0.1546,0.1564,0.163,0.1656,0.169,0.1602,0.1603,0.1603,0,0.2157,0.2118,0.2095,0.2029,0.2015,0.2001,0.1954,0.1927,0.1875,0.1846,0.1813,0.1767,0.1742,0.1709,0.1674,0.1666,0.1645,0.1619,0.1619,0.1613,0.1578,0.1626,0.1699,0.1704,0.1608,0.1608,0.1608,0,0.223,0.2171,0.215,0.2127,0.2049,0.204,0.2007,0.1954,0.193,0.1888,0.1872,0.1828,0.1804,0.1771,0.1714,0.1696,0.1686,0.1648,0.1661,0.1662,0.1661,0.1662,0.1732,0.1649,0.1649,0.1648,0.1648,0,0.2277,0.2266,0.2181,0.2169,0.2154,0.209,0.2077,0.2038,0.1992,0.197,0.1912,0.1892,0.1818,0.179,0.1745,0.1723,0.1713,0.1688,0.1677,0.1694,0.1697,0.168,0.1676,0.165,0.1649,0.1649,0.1649,0,0.2356,0.2299,0.2272,0.22,0.2182,0.2175,0.2113,0.2098,0.2055,0.2028,0.2017,0.1949,0.1913,0.1853,0.1799,0.1769,0.1755,0.1735,0.1773,0.1766,0.1782,0.1782,0.1844,0.1849,0.1763,0.1763,0.1764,0,0.2389,0.2379,0.2307,0.2289,0.2258,0.2229,0.2205,0.2141,0.2118,0.2059,0.2051,0.2011,0.1975,0.192,0.1865,0.1824,0.1802,0.1827,0.1796,0.1813,0.1803,0.1804,0.1803,0.1834,0.1836,0.1837,0.1837,0,0.2455,0.2428,0.2395,0.2353,0.2325,0.2288,0.2249,0.2237,0.2165,0.2141,0.2104,0.2077,0.2022,0.1983,0.1934,0.1899,0.1856,0.1848,0.1849,0.1866,0.1889,0.1877,0.1793,0.1847,0.1846,0.1845,0.1844,0.1844,0.2512,0.25,0.2448,0.2414,0.2378,0.2342,0.2325,0.228,0.2248,0.2199,0.2164,0.213,0.2078,0.2008,0.1976,0.1948,0.1928,0.1929,0.193,0.1931,0.1938,0.1893,0.1938,0.1938,0.1938,0.1937,0.1937,0,0.2575,0.2539,0.2508,0.2455,0.2428,0.2391,0.2345,0.2325,0.2296,0.2252,0.2218,0.2176,0.2138,0.2081,0.2038,0.2026,0.2006,0.2017,0.2017,0.201,0.1957,0.1961,0.2035,0.2035,0.2035,0.2035,0.2035,0.2035,0.2605,0.2583,0.255,0.2511,0.2474,0.244,0.2418,0.2385,0.2349,0.2305,0.2274,0.2237,0.2187,0.2141,0.2104,0.2088,0.2075,0.2093,0.2071,0.2023,0.2014,0.2005,0.2008,0.2091,0.2091,0.2126,0.2126,0.2126]}]]